Location: Peterborough
(44.3091°N, 78.3197°W)
Time: 03:52:02
(UTC-04:00)

Tiros 1 - Pass Details

Date: 07 April 2023
Orbit: 627 x 661 km, 48.4° (Epoch: 09 June)

Event Time Altitude Azimuth Distance (km) Brightness Sun altitude
Rises 06:27:10 0° 292° (WNW) 2,987 10.1 -3.8°
Reaches altitude 10° 06:29:31 10° 292° (WNW) 2,076 9.3 -3.4°
Maximum altitude 06:34:20 88° 205° (SSW) 666 7.3 -2.5°
Drops below altitude 10° 06:39:08 10° 115° (ESE) 2,071 10.7 -1.7°
Sets 06:41:28 0° 115° (ESE) 2,979 11.6 -1.3°
